Overview Statistics Trail Chart Weather Telemetry Raw packets
 

This is the latest recevied weather packets stored in our database for station/object W5MAI. If no packets are shown the sender has not sent any weather packets the latest 10 day(s).

<< 35 36 37 38 39 40 41 >>
Time Temp. Humidity Pressure Rain* Wind** Luminosity Snow
1788019406 28.33° C 79% 1021 hPa 0 mm - 689 W/m² -
1788018841 28.33° C 79% 1021 hPa 0 mm - 666 W/m² -
1788018261 27.78° C 82% 1021 hPa 0 mm - 636 W/m² -
1788017026 27.78° C 83% 1020.8 hPa 0 mm - 571 W/m² -
1788016457 27.22° C 84% 1020.6 hPa 0 mm - 550 W/m² -
1788015814 27.22° C 83% 1020.7 hPa 0 mm - 554 W/m² -
1788015248 27.22° C 84% 1020.5 hPa 0 mm - 506 W/m² -
1788014637 27.22° C 84% 1020.4 hPa 0 mm - 469 W/m² -
1788014053 27.22° C 84% 1020.4 hPa 0 mm - 438 W/m² -
1788012818 26.11° C 84% 1020.3 hPa 0 mm - 234 W/m² -
1788012254 25° C 87% 1020.3 hPa 0 mm - 239 W/m² -
1788011657 23.89° C 87% 1020.2 hPa 0 mm - 209 W/m² -
1788011021 23.89° C 87% 1020.2 hPa 0 mm - 190 W/m² -
1788010427 23.33° C 91% 1020.2 hPa 0 mm - 155 W/m² -
1788009853 22.78° C 92% 1020.2 hPa 0 mm - 118 W/m² -
1788009213 22.22° C 94% 1020.3 hPa 0 mm - 90 W/m² -
1788008641 21.67° C 95% 1020.2 hPa 0 mm - 72 W/m² -
1788008042 21.11° C 95% 1020.1 hPa 0 mm - 51 W/m² -
1788007448 20.56° C 95% 1020.2 hPa 0 mm - 30 W/m² -
1788006811 20.56° C 94% 1020.1 hPa 0 mm - 18 W/m² -
1788006222 20.56° C 94% 1020 hPa 0 mm - 11 W/m² -
1788005635 20.56° C 94% 1020 hPa 0 mm - 5 W/m² -
1788005003 20.56° C 94% 1020 hPa 0 mm - 0 W/m² -
1788004436 20.56° C 94% 1019.9 hPa 0 mm - 0 W/m² -
1788003857 20.56° C 94% 1019.8 hPa 0 mm - 0 W/m² -

* Rain latest hour (hover to see other rain measurements)
** Current wind speed in m/s (hover to see current wind gust speed)